Weather History for Milan, Italy

Change the Weather History Date:

Thursday, February 28, 2013

  Actual Average Record
Temperature  
Mean Temperature 44 °F -  
Max Temperature 51 °F 55 °F 60 °F (1998)
Min Temperature 35 °F 33 °F 19 °F (2003)
Degree Days  
Heating Degree Days 21    
Moisture  
Dew Point 37 °F    
Average Humidity 81    
Maximum Humidity 100    
Minimum Humidity 58    
Precipitation  
Precipitation 0.00 in 0.13 in - ()
Sea Level Pressure  
Sea Level Pressure 30.23 in    
Wind  
Wind Speed 3 mph ()    
Max Wind Speed 6 mph    
Max Gust Speed -    
Visibility 6.2 miles    
Events Rain    
Averages and records for this station are not official NWS values.
T = Trace of Precipitation, MM = Missing Value Source: Averaged Metar Reports

Daily Weather History Graph

Daily Weather History Graph

Search for Another Location

Airport:

Trip Planner

Search our weather history database for the weather conditions in past years. The results will help you decide how hot, cold, wet, or windy it might be!

Date:

Astronomy

Feb. 28, 2013 Rise Set
Actual Time 7:05 AM CET 6:10 PM CET
Civil Twilight 6:35 AM CET 6:40 PM CET
Nautical Twilight 6:01 AM CET 7:14 PM CET
Astronomical Twilight 5:26 AM CET 7:49 PM CET
Moon 9:32 PM CET (2/28) 7:54 AM CET (2/28)
Length of Visible Light 12h 04m
Length of Day
11h 05m
Waning Gibbous, 92% of the Moon is Illuminated
Feb 28
Waning Gibbous
Mar 4
Last Quarter
Mar 11
New
Mar 19
First Quarter
Mar 27
Full

Hourly Weather History & Observations

Time (CET) Temp. Windchill Dew Point Humidity Pressure Visibility Wind Dir Wind Speed Gust Speed Precip Events Conditions
12:20 AM 39.2 °F - 39.2 °F 100% 30.27 in 6.2 mi West 2.3 mph - N/A Rain Light Rain
12:50 AM 39.2 °F 37.0 °F 39.2 °F 100% 30.27 in 6.2 mi West 3.5 mph - N/A Rain Light Rain
1:20 AM 39.2 °F 37.0 °F 37.4 °F 93% 30.27 in 6.2 mi WNW 3.5 mph - N/A Rain Light Rain
1:50 AM 39.2 °F - 37.4 °F 93% 30.27 in 6.2 mi Variable 2.3 mph - N/A   Drizzle
2:20 AM 39.2 °F 37.0 °F 37.4 °F 93% 30.27 in 6.2 mi West 3.5 mph - N/A   Drizzle
2:50 AM 39.2 °F 35.9 °F 39.2 °F 100% 30.24 in 6.2 mi WNW 4.6 mph - N/A   Drizzle
3:20 AM 39.2 °F 35.9 °F 37.4 °F 93% 30.24 in 6.2 mi WNW 4.6 mph - N/A   Drizzle
3:50 AM 39.2 °F 35.9 °F 37.4 °F 93% 30.24 in 6.2 mi WNW 4.6 mph - N/A   Mostly Cloudy
4:20 AM 39.2 °F 35.9 °F 37.4 °F 93% 30.24 in 6.2 mi WNW 4.6 mph - N/A   Mostly Cloudy
4:50 AM 39.2 °F 37.0 °F 37.4 °F 93% 30.24 in 6.2 mi WNW 3.5 mph - N/A   Mostly Cloudy
5:20 AM 39.2 °F - 37.4 °F 93% 30.24 in 6.2 mi Variable 2.3 mph - N/A   Mostly Cloudy
5:50 AM 39.2 °F 37.0 °F 37.4 °F 93% 30.24 in 6.2 mi West 3.5 mph - N/A   Mostly Cloudy
6:20 AM 37.4 °F 34.9 °F 37.4 °F 100% 30.24 in 6.2 mi WNW 3.5 mph - N/A   Mostly Cloudy
6:50 AM 39.2 °F 35.9 °F 37.4 °F 93% 30.24 in 6.2 mi WNW 4.6 mph - N/A   Mostly Cloudy
7:20 AM 39.2 °F 35.9 °F 35.6 °F 87% 30.24 in 5.0 mi WNW 4.6 mph - N/A   Mostly Cloudy
7:50 AM 39.2 °F 37.0 °F 35.6 °F 87% 30.24 in 6.2 mi WNW 3.5 mph - N/A   Mostly Cloudy
8:20 AM 39.2 °F 37.0 °F 35.6 °F 87% 30.27 in 6.2 mi WNW 3.5 mph - N/A   Mostly Cloudy
8:50 AM 41.0 °F 39.0 °F 33.8 °F 76% 30.27 in 6.2 mi WNW 3.5 mph - N/A   Mostly Cloudy
9:20 AM 42.8 °F 41.1 °F 35.6 °F 76% 30.27 in 6.2 mi WNW 3.5 mph - N/A   Mostly Cloudy
9:50 AM 42.8 °F 41.1 °F 33.8 °F 70% 30.27 in 6.2 mi WNW 3.5 mph - N/A   Mostly Cloudy
10:20 AM 42.8 °F 41.1 °F 35.6 °F 76% 30.27 in 6.2 mi WNW 3.5 mph - N/A   Mostly Cloudy
10:50 AM 44.6 °F 43.1 °F 33.8 °F 66% 30.27 in 6.2 mi NW 3.5 mph - N/A   Mostly Cloudy
11:20 AM 44.6 °F - 33.8 °F 66% 30.27 in 6.2 mi Variable 2.3 mph - N/A   Mostly Cloudy
11:50 AM 44.6 °F - 35.6 °F 71% 30.27 in 6.2 mi Variable 1.2 mph - N/A   Mostly Cloudy
12:20 PM 46.4 °F - 35.6 °F 66% 30.27 in 6.2 mi Variable 1.2 mph - N/A   Mostly Cloudy
12:50 PM 46.4 °F - 35.6 °F 66% 30.24 in 6.2 mi Variable 2.3 mph - N/A   Mostly Cloudy
1:20 PM 48.2 °F - 37.4 °F 66% 30.24 in 6.2 mi Variable 2.3 mph - N/A   Mostly Cloudy
1:50 PM 48.2 °F - 35.6 °F 62% 30.24 in 6.2 mi South 3.5 mph - N/A   Mostly Cloudy
2:20 PM 48.2 °F - 35.6 °F 62% 30.24 in 6.2 mi SSW 3.5 mph - N/A   Mostly Cloudy
2:50 PM 48.2 °F - 37.4 °F 66% 30.24 in 6.2 mi WSW 2.3 mph - N/A   Mostly Cloudy
3:20 PM 50.0 °F - 37.4 °F 62% 30.21 in 6.2 mi WSW 2.3 mph - N/A   Mostly Cloudy
3:50 PM 50.0 °F - 37.4 °F 62% 30.21 in 6.2 mi Variable 2.3 mph - N/A   Scattered Clouds
4:20 PM 51.8 °F - 37.4 °F 58% 30.21 in 6.2 mi Variable 2.3 mph - N/A   Scattered Clouds
4:50 PM 50.0 °F - 37.4 °F 62% 30.21 in 6.2 mi Variable 2.3 mph - N/A   Scattered Clouds
5:20 PM 50.0 °F - 37.4 °F 62% 30.18 in 6.2 mi Variable 2.3 mph - N/A   Scattered Clouds
5:50 PM 48.2 °F - 37.4 °F 66% 30.18 in 6.2 mi SW 2.3 mph - N/A   Scattered Clouds
6:20 PM 46.4 °F - 37.4 °F 71% 30.18 in 6.2 mi SSW 2.3 mph - N/A   Scattered Clouds
6:50 PM 44.6 °F - 37.4 °F 76% 30.18 in 6.2 mi SW 2.3 mph - N/A   Scattered Clouds
7:20 PM 42.8 °F 41.1 °F 37.4 °F 81% 30.21 in 6.2 mi SSW 3.5 mph - N/A   Scattered Clouds
7:50 PM 42.8 °F - 39.2 °F 87% 30.21 in 6.2 mi SW 1.2 mph - N/A   Scattered Clouds
8:20 PM 42.8 °F - 39.2 °F 87% 30.21 in 6.2 mi Variable 1.2 mph - N/A   Mostly Cloudy
8:50 PM 44.6 °F 43.1 °F 39.2 °F 81% 30.21 in 6.2 mi West 3.5 mph - N/A   Mostly Cloudy
9:20 PM 41.0 °F 39.0 °F 37.4 °F 87% 30.21 in 6.2 mi West 3.5 mph - N/A   Mostly Cloudy
9:50 PM 41.0 °F 39.0 °F 39.2 °F 93% 30.21 in 6.2 mi WNW 3.5 mph - N/A   Mostly Cloudy
10:20 PM 41.0 °F - 37.4 °F 87% 30.21 in 6.2 mi Variable 2.3 mph - N/A   Mostly Cloudy
10:50 PM 39.2 °F 37.0 °F 37.4 °F 93% 30.21 in 6.2 mi WNW 3.5 mph - N/A   Scattered Clouds
11:20 PM 37.4 °F 34.9 °F 35.6 °F 93% 30.21 in 6.2 mi WNW 3.5 mph - N/A   Scattered Clouds
11:50 PM 35.6 °F 30.7 °F 35.6 °F 100% 30.18 in 6.2 mi NW 5.8 mph - N/A   Partly Cloudy